User: anonymous   Login
Location: Unspecified
(0.0000°N, 0.0000°E)
Time: 07:22:10
(UTC+00:00)
Language:

MAROC-TUBSAT - Orbit

View from above orbital plane
View from above orbital plane
View from above satellite
View from above satellite

Ground track
Ground track

The orbit is defined by the following mean orbital elements,

1 27004U          26106.98117515 +.00000000 +00000-0 +18645-4 0 00006
2 27004  99.8053 282.6915 0019141 300.8813 224.2391 13.70259892    00
Epoch (UTC): 16 April 2026 23:32:53
Eccentricity: 0.0019141
inclination: 99.8053°
perigee height: 985 km
apogee height: 1013 km
right ascension of ascending node: 282.6915°
argument of perigee: 300.8813°
revolutions per day: 13.70259892
mean anomaly at epoch: 224.2391°

The dashed part of the orbit path shows where the satellite is in the earth's shadow,  

DLR